EW7402 Weather Reports


time (UTC)temp
C
wind
direction
speed
KPH
gust
KPH
rain 1hr
cm
rain 24hr
cm
rain mn
cm
humidity
%
barometer
mb
20260506143914 12 25 8.0 20.9 0.00 0.00 0.00 64 1009.4
20260506143415 12 88 8.0 32.2 0.00 0.00 0.00 66 1009.3
20260506142914 12 351 8.0 32.2 0.00 0.00 0.00 66 1009.3
20260506142412 12 64 8.0 25.7 0.00 0.00 0.00 69 1009.3
20260506141914 12 68 8.0 25.7 0.00 0.00 0.00 68 1009.4
20260506141429 12 46 8.0 25.7 0.00 0.00 0.00 68 1009.4
20260506140409 12 64 6.4 22.5 0.00 0.00 0.00 71 1009.4
20260506135909 12 82 6.4 19.3 0.00 0.00 0.00 69 1009.4
20260506135408 12 327 6.4 19.3 0.00 0.00 0.00 69 1009.3
20260506134909 12 339 6.4 22.5 0.00 0.00 0.00 66 1009.3
20260506134408 12 75 6.4 22.5 0.00 0.00 0.00 66 1009.3
20260506134142 13 44 6.4 19.3 0.00 0.00 0.00 66 1009.3
20260506133410 13 38 6.4 19.3 0.00 0.00 0.00 64 1009.2
20260506132908 13 53 6.4 20.9 0.00 0.00 0.00 61 1009.3
20260506132407 13 63 6.4 20.9 0.00 0.00 0.00 57 1009.2
20260506131906 13 86 6.4 20.9 0.00 0.00 0.00 57 1009.3
20260506131406 13 77 6.4 16.1 0.00 0.00 0.00 57 1009.2
20260506130907 13 80 6.4 17.7 0.00 0.00 0.00 60 1009.2
20260506130408 13 103 6.4 19.3 0.00 0.00 0.00 58 1009.1
20260506125907 13 88 6.4 19.3 0.00 0.00 0.00 58 1009.1
20260506125407 13 92 8.0 24.1 0.00 0.00 0.00 59 1009.1
20260506125143 13 97 6.4 24.1 0.00 0.00 0.00 57 1009.1
20260506124408 13 123 6.4 25.7 0.00 0.00 0.00 59 1009.1
20260506123906 13 78 8.0 25.7 0.00 0.00 0.00 59 1009.2
20260506123406 13 111 8.0 20.9 0.00 0.00 0.00 59 1009.0
20260506123140 13 344 8.0 20.9 0.00 0.00 0.00 60 1009.0
20260506122420 13 103 8.0 17.7 0.00 0.00 0.00 60 1009.0
20260506121915 13 177 8.0 24.1 0.00 0.00 0.00 61 1009.2
20260506121403 13 125 8.0 24.1 0.00 0.00 0.00 60 1009.1
20260506120904 13 355 6.4 22.5 0.00 0.00 0.00 60 1009.1
20260506120403 13 78 4.8 22.5 0.00 0.00 0.00 59 1009.0
20260506120138 13 107 6.4 19.3 0.00 0.00 0.00 62 1008.9
20260506115403 13 63 8.0 19.3 0.00 0.00 0.00 60 1009.0
20260506114902 13 103 6.4 19.3 0.00 0.00 0.00 60 1009.0
20260506114400 13 0 6.4 17.7 0.00 0.00 0.00 61 1008.9
20260506113902 13 0 6.4 27.4 0.00 0.00 0.00 61 1008.9
20260506113401 13 0 8.0 27.4 0.00 0.00 0.00 60 1008.9
20260506112855 12 0 8.0 24.1 0.00 0.00 0.00 61 1008.9
20260506112349 12 0 6.4 19.3 0.00 0.00 0.00 62 1008.8
20260506112132 12 0 6.4 19.3 0.00 0.00 0.00 63 1008.9
20260506111339 12 111 8.0 19.3 0.00 0.00 0.00 61 1008.9
20260506110829 12 153 8.0 19.3 0.00 0.00 0.00 62 1008.9
20260506110327 12 100 6.4 19.3 0.00 0.00 0.00 62 1008.9
20260506105819 12 118 6.4 19.3 0.00 0.00 0.00 63 1008.8
20260506105315 12 118 8.0 24.1 0.00 0.00 0.00 62 1008.9
20260506104807 12 319 8.0 24.1 0.00 0.00 0.00 63 1008.9
20260506104031 12 151 6.4 19.3 0.00 0.00 0.00 62 1008.7
20260506103249 12 140 6.4 17.7 0.00 0.00 0.00 62 1008.8
20260506103021 12 342 6.4 20.9 0.00 0.00 0.00 62 1008.8
20260506102237 12 94 8.0 20.9 0.00 0.00 0.00 61 1008.9
20260506101732 12 116 8.0 19.3 0.00 0.00 0.00 63 1008.8
20260506101225 12 355 8.0 29.0 0.00 0.00 0.00 62 1008.7
20260506100719 12 104 8.0 29.0 0.00 0.00 0.00 61 1008.6
20260506100227 12 115 6.4 22.5 0.00 0.00 0.00 62 1008.7
20260506095707 12 86 6.4 20.9 0.00 0.00 0.00 62 1008.6
20260506095434 12 337 6.4 20.9 0.00 0.00 0.00 63 1008.5
20260506094930 12 105 6.4 17.7 0.00 0.00 0.00 62 1008.6
20260506094423 12 0 8.0 19.3 0.00 0.00 0.00 63 1008.5
20260506093915 12 148 8.0 20.9 0.00 0.00 0.00 62 1008.5
20260506093137 12 159 6.4 20.9 0.00 0.00 0.00 62 1008.6
20260506092631 12 113 6.4 20.9 0.00 0.00 0.00 64 1008.5
20260506092125 12 355 6.4 20.9 0.00 0.00 0.00 63 1008.5
20260506091617 12 88 6.4 20.9 0.00 0.00 0.00 63 1008.5
20260506091114 12 72 6.4 20.9 0.00 0.00 0.00 63 1008.5
20260506090608 12 92 6.4 20.9 0.00 0.00 0.00 62 1008.5
20260506085553 12 78 8.0 22.5 0.00 0.00 0.00 65 1008.4
20260506085320 12 94 8.0 22.5 0.00 0.00 0.00 65 1008.4
20260506084555 12 84 6.4 22.5 0.00 0.00 0.00 67 1008.4
20260506084312 12 74 8.0 22.5 0.00 0.00 0.00 67 1008.3
20260506083531 12 134 8.0 22.5 0.00 0.00 0.00 68 1008.4
20260506083025 11 65 8.0 24.1 0.00 0.00 0.00 68 1008.4
20260506082519 11 106 6.4 24.1 0.00 0.00 0.00 68 1008.3
20260506082014 11 87 6.4 20.9 0.00 0.00 0.00 71 1008.3
20260506081509 11 82 6.4 20.9 0.00 0.00 0.00 70 1008.2
20260506081001 11 90 6.4 24.1 0.00 0.00 0.00 73 1008.3
20260506080730 11 120 6.4 24.1 0.00 0.00 0.00 74 1008.3
20260506073421 10 43 4.8 12.9 0.00 0.00 0.00 81 1008.1
20260506072914 10 46 4.8 19.3 0.00 0.00 0.00 82 1008.1
20260506072407 10 41 4.8 19.3 0.00 0.00 0.00 82 1008.0
20260506071915 10 336 4.8 14.5 0.00 0.00 0.00 83 1008.1
20260506071355 10 49 4.8 17.7 0.00 0.00 0.00 83 1008.0
20260506070849 10 31 4.8 17.7 0.00 0.00 0.00 83 1008.0
20260506070614 10 71 4.8 12.9 0.00 0.00 0.00 84 1008.0
20260506062317 9 52 4.8 19.3 0.00 0.00 0.00 84 1007.9
20260506061818 9 38 4.8 19.3 0.00 0.00 0.00 84 1007.9
20260506061318 8 19 4.8 14.5 0.00 0.00 0.00 84 1007.9
20260506061049 8 29 3.2 14.5 0.00 0.00 0.00 84 1007.9
20260506060316 8 30 4.8 20.9 0.00 0.00 0.00 84 1007.9
20260506050810 8 19 8.0 24.1 0.00 0.00 0.00 85 1007.9
20260506050311 8 28 6.4 19.3 0.00 0.00 0.00 85 1007.8
20260506044806 8 355 6.4 17.7 0.00 0.00 0.00 85 1007.9
20260506044307 8 27 8.0 17.7 0.00 0.00 0.00 85 1007.8
20260506043808 8 40 6.4 16.1 0.00 0.00 0.00 85 1007.8
20260506043306 8 24 6.4 14.5 0.00 0.00 0.00 85 1007.7
20260506042806 8 338 8.0 22.5 0.00 0.00 0.00 85 1007.8
20260506042306 9 348 8.0 22.5 0.00 0.00 0.00 85 1007.8
20260506041807 8 349 6.4 20.9 0.00 0.00 0.00 85 1007.7
20260506041305 9 355 6.4 17.7 0.00 0.00 0.00 85 1007.9
20260506040807 9 9 6.4 20.9 0.00 0.00 0.00 84 1007.8
20260506040538 9 0 4.8 20.9 0.00 0.00 0.00 84 1007.8
20260506035805 9 10 4.8 16.1 0.00 0.00 0.00 84 1007.9
20260506035306 9 355 4.8 16.1 0.00 0.00 0.00 84 1007.9
20260506034806 9 34 4.8 12.9 0.00 0.00 0.00 84 1007.9
20260506034306 9 11 4.8 16.1 0.00 0.00 0.00 84 1007.8
20260506033806 8 51 6.4 16.1 0.00 0.00 0.00 84 1007.8
20260506033311 8 16 6.4 14.5 0.00 0.00 0.00 84 1007.8
20260506032306 9 38 6.4 16.1 0.00 0.00 0.00 83 1007.9
20260506031805 9 343 6.4 19.3 0.00 0.00 0.00 83 1007.9
20260506031305 9 32 6.4 19.3 0.00 0.00 0.00 83 1007.9
20260506030821 9 0 6.4 19.3 0.00 0.00 0.00 83 1007.9
20260506030307 9 34 6.4 16.1 0.00 0.00 0.00 82 1008.0
20260506025806 9 344 6.4 17.7 0.00 0.00 0.00 82 1008.0
20260506025532 9 24 6.4 17.7 0.00 0.00 0.00 82 1008.1
20260506024754 9 0 6.4 17.7 0.00 0.00 0.00 82 1008.2
20260506024250 9 355 6.4 16.1 0.00 0.00 0.00 82 1008.2
20260506023741 9 355 6.4 16.1 0.00 0.00 0.00 82 1008.2
20260506023236 9 23 6.4 19.3 0.00 0.00 0.00 82 1008.2
20260506022730 9 34 6.4 19.3 0.00 0.00 0.00 82 1008.2
20260506022231 9 348 6.4 19.3 0.00 0.00 0.00 82 1008.3
20260506021212 9 11 6.4 17.7 0.00 0.00 0.00 82 1008.3
20260506020937 9 32 6.4 17.7 0.00 0.00 0.00 82 1008.2
20260506020158 9 44 4.8 22.5 0.00 0.00 0.00 82 1008.4
20260506015650 9 355 6.4 19.3 0.00 0.00 0.00 82 1008.3
20260506015146 9 27 6.4 19.3 0.00 0.00 0.00 82 1008.5
20260506014916 9 22 4.8 17.7 0.00 0.00 0.00 82 1008.4
20260506014134 9 28 6.4 19.3 0.00 0.00 0.00 82 1008.5
20260506013628 9 77 6.4 19.3 0.00 0.00 0.00 82 1008.5
20260506013123 9 17 4.8 20.9 0.00 0.00 0.00 82 1008.4
20260506012616 9 9 6.4 20.9 0.00 0.00 0.00 82 1008.5
20260506012110 9 349 6.4 19.3 0.00 0.00 0.00 82 1008.6
20260506011605 9 0 6.4 17.7 0.00 0.00 0.00 81 1008.6
20260506011058 9 344 6.4 17.7 0.00 0.00 0.00 81 1008.7
20260506010552 9 29 6.4 17.7 0.00 0.00 0.00 81 1008.7
20260506010059 9 52 6.4 16.1 0.00 0.00 0.00 81 1008.6
20260506005540 9 338 6.4 16.1 0.00 0.00 0.00 81 1008.7
20260506005034 9 23 8.0 19.3 0.00 0.00 0.00 81 1008.8
20260506004529 9 336 6.4 19.3 0.00 0.00 0.00 81 1008.9
20260506004022 9 12 6.4 16.1 0.00 0.00 0.00 81 1008.8
20260506003749 9 40 4.8 16.1 0.00 0.00 0.00 81 1008.9
20260506003010 9 42 4.8 16.1 0.00 0.00 0.00 81 1008.9
20260506002741 9 9 4.8 16.1 0.00 0.00 0.00 80 1009.0
20260506002001 9 40 4.8 17.7 0.00 0.00 0.00 80 1009.0
20260506001452 9 34 4.8 20.9 0.00 0.00 0.00 80 1009.0
20260506001220 9 39 6.4 20.9 0.00 0.00 0.00 80 1009.2
20260506000440 9 318 6.4 17.7 0.00 0.00 0.00 80 1009.2
20260505235935 9 18 6.4 17.7 0.00 0.00 0.00 80 1009.3
20260505235428 9 339 4.8 17.7 0.00 0.00 0.00 80 1009.2
20260505234922 9 350 6.4 16.1 0.00 0.00 0.00 80 1009.3
20260505234416 9 22 6.4 17.7 0.00 0.00 0.00 80 1009.3
20260505233910 9 344 4.8 17.7 0.00 0.00 0.00 80 1009.3
20260505233405 9 22 4.8 16.1 0.00 0.00 0.00 80 1009.3
20260505232858 9 31 4.8 17.7 0.00 0.00 0.00 80 1009.3
20260505232352 9 329 6.4 17.7 0.00 0.00 0.00 80 1009.3
20260505231846 9 0 6.4 16.1 0.00 0.00 0.00 79 1009.3
20260505231615 9 12 6.4 19.3 0.00 0.00 0.00 80 1009.3
20260505230834 9 28 4.8 19.3 0.00 0.00 0.00 80 1009.4
20260505230340 9 0 4.8 16.1 0.00 0.00 0.00 80 1009.5
20260505225821 9 355 4.8 20.9 0.00 0.00 0.00 80 1009.4
20260505225316 9 9 4.8 20.9 0.00 0.00 0.00 80 1009.5
20260505225045 9 355 4.8 16.1 0.00 0.00 0.00 80 1009.4
20260505224314 9 348 6.4 20.9 0.00 0.00 0.00 80 1009.6
20260505223814 9 79 6.4 20.9 0.00 0.00 0.00 80 1009.5
20260505223313 9 40 6.4 17.7 0.00 0.00 0.00 80 1009.6
20260505222813 9 338 6.4 17.7 0.00 0.00 0.00 80 1009.6
20260505222313 9 32 6.4 16.1 0.00 0.00 0.00 81 1009.7
20260505221816 9 344 8.0 20.9 0.00 0.00 0.00 80 1009.7
20260505221313 9 36 8.0 20.9 0.00 0.00 0.00 80 1009.7
20260505220814 9 61 8.0 24.1 0.00 0.00 0.00 80 1009.7
20260505220313 9 40 6.4 24.1 0.00 0.00 0.00 80 1009.7
20260505215811 9 344 6.4 17.7 0.00 0.00 0.00 81 1009.7
20260505215313 10 45 6.4 17.7 0.00 0.00 0.00 81 1009.8
20260505214811 10 9 8.0 20.9 0.00 0.00 0.00 81 1009.9
20260505214315 10 69 8.0 22.5 0.00 0.00 0.00 81 1010.0
20260505213300 10 56 6.4 19.3 0.00 0.00 0.00 81 1010.1
20260505213028 10 34 6.4 16.1 0.00 0.00 0.00 81 1009.9
20260505212247 10 19 6.4 20.9 0.00 0.00 0.00 81 1010.0
20260505211752 10 19 6.4 20.9 0.00 0.00 0.00 81 1010.1
20260505210743 10 344 6.4 17.7 0.00 0.00 0.00 81 1010.1
20260505210245 10 0 6.4 16.1 0.00 0.00 0.00 81 1010.2
20260505205745 10 38 6.4 16.1 0.00 0.00 0.00 80 1010.2
20260505205245 10 46 8.0 16.1 0.00 0.00 0.00 80 1010.2
20260505204744 10 47 6.4 16.1 0.00 0.00 0.00 80 1010.2
20260505203739 10 67 6.4 25.7 0.00 0.00 0.00 80 1010.3
20260505203514 10 27 6.4 25.7 0.00 0.00 0.00 80 1010.4
20260505202740 10 32 8.0 24.1 0.00 0.00 0.00 80 1010.4
20260505202241 10 17 6.4 19.3 0.00 0.00 0.00 80 1010.4
20260505201737 10 60 4.8 19.3 0.00 0.00 0.00 79 1010.4
20260505201237 10 36 6.4 19.3 0.00 0.00 0.00 79 1010.3
20260505201016 10 51 8.0 19.3 0.00 0.00 0.00 79 1010.2
20260505200238 10 0 6.4 19.3 0.00 0.00 0.00 79 1010.3
20260505195738 10 333 6.4 20.9 0.00 0.00 0.00 79 1010.2
20260505195515 10 340 4.8 20.9 0.00 0.00 0.00 79 1010.1
20260505194730 10 45 4.8 16.1 0.00 0.00 0.00 79 1010.0
20260505194226 10 43 6.4 17.7 0.00 0.00 0.00 79 1010.1
20260505193720 10 45 8.0 19.3 0.00 0.00 0.00 79 1010.1
20260505193214 10 22 6.4 19.3 0.00 0.00 0.00 79 1010.1
20260505192708 10 338 4.8 14.5 0.00 0.00 0.00 79 1010.1
20260505192202 10 19 4.8 19.3 0.00 0.00 0.00 79 1010.0
20260505191657 10 9 4.8 14.5 0.00 0.00 0.00 78 1010.0
20260505191152 10 9 4.8 17.7 0.00 0.00 0.00 78 1010.0
20260505190924 10 355 6.4 19.3 0.00 0.00 0.00 78 1010.0
20260505190138 10 350 6.4 19.3 0.00 0.00 0.00 78 1009.9
20260505185632 10 30 6.4 19.3 0.00 0.00 0.00 78 1009.9
20260505185126 10 22 6.4 19.3 0.00 0.00 0.00 77 1009.9
20260505184620 10 16 8.0 24.1 0.00 0.00 0.00 77 1009.8
20260505184113 10 71 8.0 24.1 0.00 0.00 0.00 77 1009.9
20260505183608 10 76 6.4 20.9 0.00 0.00 0.00 77 1009.8
20260505183102 10 30 6.4 17.7 0.00 0.00 0.00 77 1009.8
20260505182556 10 40 6.4 17.7 0.00 0.00 0.00 77 1009.8
20260505182050 10 355 4.8 17.7 0.00 0.00 0.00 76 1009.8
20260505181545 10 95 6.4 17.7 0.00 0.00 0.00 76 1009.9
20260505181037 10 48 6.4 20.9 0.00 0.00 0.00 75 1009.9
20260505180533 11 45 6.4 20.9 0.00 0.00 0.00 75 1009.8
20260505180258 11 51 6.4 19.3 0.00 0.00 0.00 75 1009.8
20260505175522 11 69 6.4 20.9 0.00 0.00 0.00 75 1009.8
20260505175014 11 18 6.4 20.9 0.00 0.00 0.00 75 1009.8
20260505174741 11 21 6.4 16.1 0.00 0.00 0.00 75 1009.9
20260505174002 11 65 6.4 16.1 0.00 0.00 0.00 75 1009.9
20260505173457 11 70 4.8 17.7 0.00 0.00 0.00 75 1009.9
20260505173222 11 98 4.8 17.7 0.00 0.00 0.00 75 1010.0
20260505172444 11 46 3.2 14.5 0.00 0.00 0.00 75 1009.8
20260505171939 11 52 4.8 12.9 0.00 0.00 0.00 75 1009.8
20260505171433 11 30 6.4 19.3 0.00 0.00 0.00 75 1010.0
20260505170928 11 37 6.4 22.5 0.00 0.00 0.00 75 1010.0
20260505170440 11 23 4.8 22.5 0.00 0.00 0.00 75 1010.0
20260505165928 11 344 4.8 16.1 0.00 0.00 0.00 74 1010.0
20260505165657 11 64 6.4 16.1 0.00 0.00 0.00 74 1010.1
20260505164925 11 49 6.4 16.1 0.00 0.00 0.00 73 1010.0
20260505164426 11 0 4.8 16.1 0.00 0.00 0.00 74 1010.0
20260505163925 11 17 4.8 16.1 0.00 0.00 0.00 74 1010.0
20260505163658 11 62 6.4 19.3 0.00 0.00 0.00 74 1010.1
20260505162926 11 61 6.4 19.3 0.00 0.00 0.00 74 1010.0
20260505162427 11 97 4.8 16.1 0.00 0.00 0.00 74 1010.0
20260505161928 11 60 6.4 16.1 0.00 0.00 0.00 74 1010.1
20260505161425 11 355 4.8 19.3 0.00 0.00 0.00 74 1010.0
20260505160925 11 61 4.8 19.3 0.00 0.00 0.00 75 1010.0
20260505160425 11 69 6.4 17.7 0.00 0.00 0.00 75 1010.1
20260505152422 11 355 4.8 16.1 0.00 0.00 0.00 74 1010.2
20260505151924 11 38 4.8 17.7 0.00 0.00 0.00 74 1010.2
20260505151423 11 72 6.4 17.7 0.00 0.00 0.00 74 1010.2
20260505151158 11 46 6.4 16.1 0.00 0.00 0.00 74 1010.2
20260505150422 11 55 6.4 19.3 0.00 0.00 0.00 73 1010.2